Location: *
(48.7358°N, 0.3111°E)
Time: 23:18:12
(UTC+00:00)

ATLAS 3B R/B - Pass Details

Date: 22 October 2019
Orbit: 1029 x 1166 km, 63.8° (Epoch: 10 November)

Event Time Altitude Azimuth Distance (km) Brightness Sun altitude
Exits shadow 02:03:17 28° 77° (ENE) 1,864 4.3 -42.3°
Drops below altitude 10° 02:06:51 10° 100° (E) 2,878 5.3 -41.8°
Sets 02:09:44 0° 108° (ESE) 3,849 6.0 -41.5°
